Location: Ladirat
(44.8151°N, 1.9702°E)
Time: 19:50:08
(UTC+00:00)

Cosmos 2151 - Pass Details

Date: 15 May 2026
Orbit: 556 x 575 km, 82.5° (Epoch: 8 June)

Event Time Altitude Azimuth Distance (km) Brightness Sun altitude
Rises 20:50:38 0° 352° (N) 2,770 7.4 -14.4°
Reaches altitude 10° 20:52:50 10° 354° (N) 1,865 6.3 -14.7°
Maximum altitude 20:56:56 77° 80° (E) 581 2.8 -15.2°
Enters shadow 20:59:10 26° 164° (SSE) 1,125 3.9 -15.4°
